Regional Weather Roundup
Issued by NWS Mt. Holly, NJ

Current Version | Previous Version | Text Only | Print | Product List | Glossary Off
Versions: 1 2 3 4 5 6 7 8 9 10 11 12 13 14 15 16 17 18 19 20 21 22 23 24 25 26 27 28 29 30 31 32 33 34 35 36 37 38 39 40 41 42 43 44 45 46 47 48 49 50

624
ASUS41 KPHI 281111
RWRPHI

REGIONAL WEATHER ROUNDUP
NATIONAL WEATHER SERVICE MOUNT HOLLY NJ
700 AM EDT TUE JUN 28 2016

NOTE:  "FAIR" INDICATES FEW OR NO CLOUDS BELOW 12,000 FEET WITH NO
SIGNIFICANT WEATHER AND/OR OBSTRUCTIONS TO VISIBILITY.

 * = STATION DOES NOT REPORT PRECIPITATION (E.G. RAIN, SNOW, ETC.)
        OR FOG.

NJZ015>026-281200-
SOUTHERN NEW JERSEY

CITY           SKY/WX    TMP DP  RH WIND       PRES   REMARKS
POMONA         LGT RAIN  71  68  90 S9        29.96S
WILDWOOD*      CLOUDY    72  70  94 S5        29.96S
MILLVILLE      CLOUDY    72  70  93 S3        29.95S
WRIGHTSTOWN    CLOUDY    70  70 100 S6        29.93S
MOUNT HOLLY    CLOUDY    70  69  97 CALM      29.95S
TRENTON        CLOUDY    71  68  90 S6        29.95S

$$
NJZ001>014-281200-
NORTHERN NEW JERSEY

CITY           SKY/WX    TMP DP  RH WIND       PRES   REMARKS
SUSSEX         CLOUDY    70  67  90 CALM      29.96S FOG
ANDOVER*         N/A     69  67  93 S3        29.97R
MORRISTOWN     CLOUDY    70  68  94 S3        29.97S
NEWARK         CLOUDY    71  68  90 S6        29.96S
TETERBORO      CLOUDY    71  66  84 S7        29.96S
CALDWELL       CLOUDY    70  66  87 CALM      29.97R
SOMERVILLE     CLOUDY    70  68  93 CALM      29.94S
ALLAIRE*       PTSUNNY   66  66 100 SE8       29.98F
TOMS RIVER*    CLOUDY    70  69  97 S7        29.96F

$$
PAZ043-044-047-054-055-060>062-066>071-281200-
EASTERN PENNSYLVANIA

CITY           SKY/WX    TMP DP  RH WIND       PRES   REMARKS
PHILADELPHIA   CLOUDY    73  70  90 CALM      29.94F
NORTH PHILA    CLOUDY    72  70  93 SE5       29.96F
BLUE BELL*     CLOUDY    70  68  94 CALM      29.94S
DOYLESTOWN     CLOUDY    68  68 100 VRB3      29.95S
QUAKERTOWN*    CLOUDY    70  70 100 CALM      29.97R
PERKASIE*      CLOUDY    68  68 100 CALM      29.97S FOG
POTTSTOWN      CLOUDY    70  68  93 CALM      29.97R FOG
LANCASTER      CLOUDY    70  68  93 SE3       29.95R FOG
COATESVILLE    FOG       68  68 100 CALM      29.98R VSB 1/4
READING        CLOUDY    72  67  84 SE3       29.94R
ALLENTOWN      CLOUDY    72  68  87 CALM      29.95S FOG
MOUNT POCONO   FOG       66  65  96 S3        30.00R VSB<1/4
HAZLETON       FOG       68  66  94 CALM      30.01S VSB 3/4
LEHIGHTON      CLOUDY    70  70 100 CALM      29.96S FOG
WILKES BARRE   MOSUNNY   71  67  87 CALM      29.94F

$$
DEZALL-MDZ008-012-015-019-020-281200-
DELAWARE AND EASTERN MARYLAND

CITY           SKY/WX    TMP DP  RH WIND       PRES   REMARKS
WILMINGTON     CLOUDY    73  70  90 S6        29.95R
DOVER          LGT RAIN  72  72 100 S3        29.94R
GEORGETOWN     LGT RAIN  72  71  97 SW7       29.96S FOG
EASTON         DRIZZLE   73  73 100 S5        29.98R
ABERDEEN       CLOUDY    72  72 100 CALM      29.93S FOG
PATUXENT       CLOUDY    73  71  93 S3        29.93S
OCEAN CITY     RAIN      73  72  96 SW9       29.95F FOG
WALLOPS ISLAND CLOUDY    74  73  97 S8        29.96F
CAMBRIDGE      CLOUDY    72  70  94 S5        29.94S
SALISBURY      HVY RAIN  72  72 100 CALM      29.95F FOG

$$
PAZ001-021-NYZ056-072-MDZ011-DCZ001-281200-
OTHER NEARBY LOCATIONS

CITY           SKY/WX    TMP DP  RH WIND       PRES   REMARKS
HARRISBURG     CLOUDY    71  67  87 SE5       29.93S
STATE COLLEGE  SUNNY     66  64  94 CALM      29.95S
WILLIAMSPORT   PTSUNNY   69  67  93 SW3       29.92R FOG
BINGHAMTON     CLOUDY    67  67 100 SW6       29.95R FOG
NEW YORK CITY  CLOUDY    70  67  90 CALM      30.00S FOG
BALTIMORE      CLOUDY    73  70  90 S5        29.94R
WASHINGTON DC  CLOUDY    75  72  90 S7        29.94R

$$




USA.gov is the U.S. government's official web portal to all federal, state and local government web resources and services.